Regional Weather Roundup
Issued by NWS Albany, NY

Home | Current Version | Previous Version | Graphics & Text | Print | Product List | Glossary Off
Versions: 1 2 3 4 5 6 7 8 9 10 11 12 13 14 15 16 17 18 19 20 21 22 23 24 25 26 27 28 29 30 31 32 33 34 35 36 37 38 39 40 41 42 43 44 45 46 47 48 49 50

000
ASUS41 KALY 211710
RWRALY

NEW YORK STATE HOURLY WEATHER ROUNDUP
NATIONAL WEATHER SERVICE ALBANY NY
100 PM EDT MON MAY 21 2018

NOTE: "FAIR" INDICATES FEW OR NO CLOUDS BELOW 12,000 FEET WITH NO
SIGNIFICANT WEATHER AND/OR NO OBSTRUCTIONS TO VISIBILITY.

NYZ032-033-038>043-046>054-057>066-NYZ062>081-082-084-211800-
EAST


CITY           SKY/WX    TMP DP  RH WIND       PRES   REMARKS
ALBANY         FAIR      73  38  27 W3        30.19F
GLENS FALLS    FAIR      70  44  39 S9        30.16F
POUGHKEEPSIE   FAIR      71  45  39 W8        30.18F
NEWBURGH       MOSUNNY   70  50  49 CALM      30.21F
MONTGOMERY     FAIR      72  52  49 VRB3      30.18F
WHITE PLAINS   FAIR      71  40  32 W5        30.19F
ISLIP          PTSUNNY   72  49  44 CALM      30.18F
NEW YORK CITY  PTSUNNY   74  46  36 VRB3      30.19F
CENTRAL PARK   FAIR      74  43  32 CALM      30.22F
$$

NYZ005>009-017-018-044>046-055-056-211800-
CENTRAL


CITY           SKY/WX    TMP DP  RH WIND       PRES   REMARKS
FULTON         FAIR      70  46  42 SW6       30.22F
SYRACUSE       PTSUNNY   69  46  43 VRB3      30.22F
ROME           FAIR      68  46  45 VRB3      30.22F
ELMIRA         FAIR      71  45  39 SE7       30.22F
BINGHAMTON     FAIR      66  45  46 N6        30.23F
$$

NYZ026>034-041>043-087-211800-
NORTH


CITY           SKY/WX    TMP DP  RH WIND       PRES   REMARKS
WATERTOWN      FAIR      63  51  65 W13       30.21F
FORT DRUM      NOT AVBL
OGDENSBURG     FAIR      73  43  33 W9G17     30.16S
MASSENA        FAIR      73  46  38 SW15G21   30.13F
SARANAC LAKE   FAIR      69  36  29 NW10G20   30.15F
PLATTSBURGH    FAIR      69  44  40 SE17      30.09F
$$

NYZ001>004-010>016-019>021-085-211800-
WEST


CITY           SKY/WX    TMP DP  RH WIND       PRES   REMARKS
NIAGARA FALLS  FAIR      70  41  34 N5        30.23F
BUFFALO        FAIR      68  41  37 VRB3      30.23F
DUNKIRK        FAIR      63  46  54 N9        30.23F
JAMESTOWN      FAIR      66  45  46 E8        30.24F
WELLSVILLE     FAIR      70  40  33 VRB3      30.25F
ROCHESTER      FAIR      69  44  40 CALM      30.24F
PENN YAN       FAIR      68  39  34 NE3       30.25F
$$

             KEY
       WCI = WIND CHILL INDEX
       VSB = VISIBILITY
       HX  = HEAT INDEX
$$



USA.gov is the U.S. government's official web portal to all federal, state and local government web resources and services.